Location: Newark
(39.9500°N, 8.6833°E)
Time: 07:28:15
(UTC+00:00)

NO-84 - Pass Details

Date: 01 March 2020
Orbit: 328 x 491 km, 55.0° (Epoch: 01 April)

Event Time Altitude Azimuth Distance (km) Brightness Sun altitude
Exits shadow 03:23:51 12° 119° (ESE) 1,495 ? -30.1°
Drops below altitude 10° 03:24:08 10° 120° (ESE) 1,610 ? -30.1°
Sets 03:26:15 0° 124° (SE) 2,455 ? -29.7°
